Roseburg, OR

6:24 PM PST on February 18, 2018 (GMT -0800)
Roseburg Regional

Weather History for KRBG - February, 2013

Change the Weather History Date:

Monday, February 25, 2013

  Actual Average Record
Temperature  
Mean Temperature 45 °F 46 °F  
Max Temperature 51 °F 55 °F 72 °F (1932)
Min Temperature 39 °F 38 °F 21 °F (1962)
Degree Days  
Heating Degree Days 20 19  
Month to date heating degree days 497 497  
Since 1 July heating degree days 2659 2816  
Cooling Degree Days 0 0  
Month to date cooling degree days 0 0  
Year to date cooling degree days 0 0  
Moisture  
Dew Point 36 °F    
Average Humidity 73    
Maximum Humidity 96    
Minimum Humidity 50    
Precipitation  
Precipitation 0.08 in 0.12 in 0.94 in (2007)
Month to date precipitation 0.71 3.56  
Year to date precipitation 3.12 8.65  
Sea Level Pressure  
Sea Level Pressure 30.33 in    
Wind  
Wind Speed 3 mph (NW)    
Max Wind Speed 14 mph    
Max Gust Speed 20 mph    
Visibility 10 miles    
Events Rain    
T = Trace of Precipitation, MM = Missing Value Source: NWS Daily Summary

Daily Weather History Graph

Daily Weather History Graph

Search for Another Location

Airport or City:

Trip Planner

Search our weather history database for the weather conditions in past years. The results will help you decide how hot, cold, wet, or windy it might be!

Date:

Astronomy

Feb. 25, 2013 Rise Set
Actual Time 6:55 AM PST 5:57 PM PST
Civil Twilight 6:26 AM PST 6:26 PM PST
Nautical Twilight 5:53 AM PST 6:59 PM PST
Astronomical Twilight 5:20 AM PST 7:32 PM PST
Moon 6:19 PM PST (2/25) 6:27 AM PST (2/25)
Length of Visible Light 11h 59m
Length of Day
11h 02m
Full, 100% of the Moon is Illuminated
Feb 25
Full
Feb 25
Full
Mar 4
Last Quarter
Mar 11
New
Mar 19
First Quarter

Hourly Weather History & Observations

Time (PST) Temp. Windchill Dew Point Humidity Pressure Visibility Wind Dir Wind Speed Gust Speed Precip Events Conditions
12:53 AM 44.1 °F - 37.9 °F 79% 30.19 in 10.0 mi Calm Calm - N/A   Overcast
1:53 AM 44.1 °F - 39.0 °F 82% 30.19 in 10.0 mi Calm Calm - 0.00 in Rain Light Rain
2:46 AM 44.6 °F - 39.2 °F 81% 30.20 in 8.0 mi Calm Calm - 0.02 in Rain Light Rain
2:53 AM 44.1 °F - 39.9 °F 85% 30.21 in 10.0 mi Calm Calm - 0.02 in Rain Light Rain
3:05 AM 44.6 °F - 39.2 °F 81% 30.20 in 9.0 mi Calm Calm - 0.01 in Rain Light Rain
3:53 AM 43.0 °F - 41.0 °F 93% 30.24 in 10.0 mi Calm Calm - 0.04 in Rain Light Rain
4:53 AM 45.0 °F 41.8 °F 37.0 °F 74% 30.27 in 10.0 mi Variable 5.8 mph - 0.00 in Rain Light Rain
5:53 AM 39.9 °F - 37.0 °F 89% 30.29 in 10.0 mi Calm Calm - 0.01 in   Scattered Clouds
6:53 AM 41.0 °F - 39.0 °F 93% 30.31 in 10.0 mi Calm Calm - 0.00 in   Overcast
7:53 AM 42.1 °F - 37.9 °F 85% 30.34 in 10.0 mi Calm Calm - 0.01 in   Scattered Clouds
8:53 AM 43.0 °F 40.3 °F 37.9 °F 82% 30.36 in 10.0 mi SW 4.6 mph - N/A   Overcast
9:53 AM 46.0 °F 44.8 °F 39.0 °F 76% 30.36 in 10.0 mi South 3.5 mph - 0.00 in   Overcast
10:17 AM 46.4 °F 42.4 °F 37.4 °F 71% 30.36 in 10.0 mi North 8.1 mph - 0.00 in   Overcast
10:41 AM 46.4 °F 45.2 °F 37.4 °F 71% 30.36 in 10.0 mi NNE 3.5 mph - 0.00 in   Scattered Clouds
10:53 AM 46.9 °F - 37.0 °F 68% 30.38 in 10.0 mi Calm Calm - 0.00 in   Mostly Cloudy
11:53 AM 46.9 °F - 36.0 °F 66% 30.38 in 10.0 mi South 4.6 mph - 0.00 in   Mostly Cloudy
12:53 PM 48.0 °F - 30.0 °F 50% 30.36 in 10.0 mi SW 10.4 mph 19.6 mph N/A   Mostly Cloudy
1:53 PM 48.9 °F - 33.1 °F 54% 30.37 in 10.0 mi SW 6.9 mph - N/A   Mostly Cloudy
2:53 PM 48.0 °F - 33.1 °F 56% 30.37 in 10.0 mi North 5.8 mph - N/A   Mostly Cloudy
3:53 PM 48.9 °F - 34.0 °F 56% 30.36 in 10.0 mi Calm Calm - N/A   Partly Cloudy
4:53 PM 48.0 °F - 30.9 °F 52% 30.36 in 10.0 mi Variable 5.8 mph - N/A   Partly Cloudy
5:53 PM 45.0 °F 41.2 °F 33.1 °F 63% 30.38 in 10.0 mi NW 6.9 mph - N/A   Overcast
6:53 PM 44.1 °F 39.0 °F 36.0 °F 73% 30.39 in 10.0 mi North 9.2 mph - N/A   Overcast
7:53 PM 42.1 °F 39.2 °F 34.0 °F 73% 30.40 in 10.0 mi NNE 4.6 mph - N/A   Partly Cloudy
8:53 PM 39.9 °F - 34.0 °F 79% 30.42 in 10.0 mi Calm Calm - N/A   Mostly Cloudy
9:53 PM 39.9 °F - 34.0 °F 79% 30.43 in 10.0 mi Calm Calm - N/A   Mostly Cloudy
10:53 PM 39.9 °F - 34.0 °F 79% 30.44 in 10.0 mi Calm Calm - N/A   Overcast
11:53 PM 39.9 °F - 35.1 °F 83% 30.44 in 10.0 mi Calm Calm - N/A   Overcast